Theta_e
318 319 324 326 323 326 327 329 328 329 328 325 325 322 321 325 320 321 329 333 335 338 338 334 332 331 331 331 329 330 329 331 331 330 328 328 326 327 329 329 326 329 332 333 334 334 333 331 330
317 322 327 322 323 326 326 326 329 328 325 328 328 330 331 334 328 330 332 335 338 338 335 333 331 330 329 330 329 327 328 329 328 328 327 326 326 331 330 330 326 327 332 333 333 333 331 329 328
321 326 322 328 324 324 323 324 324 329 325 326 333 329 331 332 328 331 331 340 339 337 335 333 330 328 328 328 328 328 328 328 328 327 327 326 328 330 331 330 327 325 331 332 333 332 330 329 327
322 320 316 327 328 326 322 324 324 324 326 328 330 333 327 326 330 331 334 337 338 337 334 332 329 329 327 328 328 327 326 327 328 328 328 330 330 329 330 329 328 326 326 332 331 332 330 328 326
320 314 318 325 327 330 324 323 322 325 322 328 330 333 330 327 329 332 336 337 336 336 334 332 330 329 328 328 327 327 327 328 328 328 330 331 329 327 330 328 327 327 326 329 330 330 329 328 326
318 314 315 314 321 323 323 321 320 321 320 329 331 330 329 330 333 335 335 336 336 335 334 332 330 328 328 327 327 326 330 327 326 329 329 330 326 330 330 330 329 327 328 328 329 330 329 327 325
319 317 319 319 320 318 319 314 320 319 319 323 329 332 327 329 333 335 335 336 336 335 333 332 329 328 327 327 326 327 329 330 328 325 328 327 325 326 329 327 327 328 327 327 329 328 328 326 324
315 316 321 319 320 320 316 314 316 318 320 328 329 332 329 325 334 334 335 335 336 335 333 331 329 328 327 326 327 326 327 325 327 327 325 324 323 327 328 326 327 328 327 328 327 328 328 327 323
313 318 318 321 321 319 316 316 316 314 322 329 328 328 326 332 334 334 335 335 336 335 333 332 329 328 327 327 326 323 325 324 327 329 325 323 323 329 327 326 326 326 326 326 325 326 327 326 323
318 318 319 317 317 319 317 317 315 317 321 328 328 324 327 333 333 334 333 334 335 335 334 332 330 328 327 327 326 325 326 323 325 328 325 323 325 328 327 325 323 324 324 324 324 324 325 324 323
315 320 315 314 313 315 318 318 316 315 320 319 322 326 325 331 332 333 332 333 333 335 334 333 331 327 328 327 326 325 326 324 323 325 322 322 325 327 327 324 320 321 322 323 324 324 324 324 323
312 309 308 310 306 311 319 319 319 319 317 316 321 324 325 328 331 331 332 332 332 333 334 333 332 328 328 326 326 325 325 325 323 323 321 323 324 326 325 323 319 319 321 321 323 324 323 323 323
309 307 306 305 304 308 313 319 321 319 316 321 323 325 325 325 327 331 333 332 332 332 333 333 332 328 328 326 327 325 325 325 320 323 323 323 322 325 326 324 320 318 319 319 321 322 322 322 322
305 305 303 302 303 304 310 318 318 317 313 315 324 324 324 324 328 329 332 332 332 332 332 332 332 330 329 327 327 326 325 325 321 322 323 324 321 324 325 324 321 318 317 318 318 319 320 320 320
305 303 303 304 303 307 308 316 317 303 307 310 312 313 317 322 326 329 329 331 330 328 331 331 331 330 329 328 327 327 326 324 324 322 321 323 322 320 324 324 322 320 317 316 317 317 317 317 317
305 302 304 304 305 306 310 314 309 304 303 304 305 306 307 310 312 319 328 331 331 329 330 331 331 331 330 329 328 327 326 325 324 323 322 320 320 320 323 324 323 321 319 317 318 317 317 316 316
305 308 308 307 305 305 305 307 305 303 303 304 303 303 303 303 304 304 307 316 329 331 331 331 332 332 331 330 329 327 326 326 324 324 323 322 319 318 321 323 323 322 320 318 318 318 316 316 315
309 307 306 307 305 306 306 305 304 303 301 301 302 304 305 305 305 306 306 313 317 326 330 330 330 331 331 330 329 328 327 326 325 325 323 323 320 319 322 323 323 322 320 318 317 317 315 315 314
306 307 306 305 306 305 305 304 304 303 303 302 302 303 303 304 303 304 304 306 310 319 326 329 330 331 330 329 329 328 328 327 326 326 325 324 322 322 322 322 323 322 320 318 318 317 316 315 314
306 307 306 305 305 306 305 305 303 303 303 302 301 301 301 301 302 302 302 303 304 304 308 318 326 330 329 329 329 329 328 327 327 326 326 325 323 322 322 322 323 323 322 319 319 319 316 315 314
307 308 308 308 305 304 304 305 304 303 303 302 301 299 299 299 300 300 300 302 301 302 303 305 313 323 328 329 329 329 328 327 327 327 326 326 324 323 323 323 323 323 322 320 320 319 317 315 314
309 307 307 307 306 308 303 304 305 304 304 302 301 299 298 298 298 298 298 299 300 300 301 302 305 315 325 327 328 328 328 326 326 327 326 326 325 324 323 323 323 323 323 321 320 319 318 316 313
308 305 307 307 307 303 304 301 304 302 304 303 301 299 298 297 297 297 297 297 297 298 299 299 302 305 316 323 326 327 327 327 326 326 327 325 326 325 324 323 324 324 323 322 322 319 319 318 315
305 304 300 300 301 297 304 302 303 306 305 302 300 298 298 297 296 295 295 295 296 296 297 297 299 301 306 313 322 325 326 326 325 326 326 325 323 324 324 323 323 323 323 323 322 321 319 319 318
303 297 293 298 297 299 302 303 305 304 303 300 299 298 297 295 296 295 295 295 294 294 295 296 297 299 302 306 311 320 324 325 325 325 325 325 324 325 326 323 323 322 322 322 322 321 320 319 317
306 306 298 301 305 302 302 306 307 303 301 298 297 297 297 296 296 296 295 294 293 293 293 295 297 298 300 302 306 311 321 324 324 324 324 324 324 325 325 325 325 323 323 322 321 321 321 320 319
302 302 307 300 299 303 302 304 304 301 300 299 298 298 298 297 297 296 294 294 293 293 293 295 296 297 299 301 303 306 311 322 323 324 324 324 324 324 324 324 324 325 324 322 321 321 320 320 320
305 305 299 297 300 301 301 302 305 303 301 300 299 298 298 297 296 295 294 293 293 292 292 293 294 295 296 299 302 305 308 315 321 323 324 324 324 324 324 324 324 323 324 322 321 321 321 320 319
305 299 305 307 306 304 304 301 303 301 301 300 299 297 297 296 296 295 294 293 292 291 291 291 292 293 295 298 301 306 311 315 320 323 323 325 324 324 324 324 323 323 323 322 322 321 321 320 320
305 305 305 299 298 301 303 302 301 300 299 299 298 297 296 294 294 293 293 292 291 291 290 290 290 291 293 296 299 305 312 319 323 324 324 324 325 324 324 324 324 323 324 323 323 321 321 321 320
Wind_Speed
12 10 8 5 3 4 3 5 2 4 3 3 3 5 4 2 3 3 4 12 31 37 35 29 27 26 26 23 22 19 19 19 19 18 18 18 16 15 14 15 15 14 13 14 16 22 24 23 23
11 4 4 2 4 2 5 3 5 4 4 4 4 2 5 2 2 4 11 22 32 36 34 30 28 26 25 24 21 20 18 18 17 17 18 15 14 12 14 16 16 12 11 13 16 21 21 20 22
4 3 4 4 4 8 5 5 6 3 4 4 4 4 2 2 3 14 4 26 34 34 32 29 27 27 26 23 23 19 18 19 16 17 16 15 13 12 17 17 16 13 12 13 16 20 22 22 21
2 4 4 4 7 4 4 6 3 3 3 3 4 5 2 3 8 8 24 28 32 33 31 29 28 26 24 22 22 20 18 19 16 16 16 13 12 11 18 18 17 14 11 13 14 19 22 22 21
3 3 3 2 4 2 4 6 5 4 4 1 2 4 3 4 5 15 27 30 30 32 30 27 23 26 24 22 20 19 18 17 17 17 13 12 12 12 18 18 19 16 16 11 12 17 22 22 21
3 3 3 4 2 2 4 6 3 2 1 2 2 6 3 6 16 26 26 28 30 32 32 27 23 24 24 21 20 20 15 17 17 17 14 13 13 16 18 17 17 16 16 12 11 14 22 21 20
5 4 4 3 3 3 4 5 4 5 3 5 7 5 3 4 17 22 26 27 31 31 31 27 24 24 23 22 20 18 16 18 19 17 14 13 12 14 17 16 17 16 14 12 10 16 21 20 19
4 4 2 3 3 1 3 7 2 1 3 1 1 4 5 7 24 23 24 24 29 31 30 27 25 24 23 22 21 19 16 14 16 17 15 12 10 14 17 16 17 16 13 10 13 17 19 19 17
1 4 2 2 1 1 5 6 4 3 2 3 4 2 1 29 28 25 23 21 25 29 30 28 27 25 24 23 20 18 18 15 16 17 15 12 13 17 17 15 16 16 14 14 13 14 15 16 17
4 2 5 4 3 3 7 5 6 5 4 4 3 7 17 24 25 28 19 13 19 24 28 30 29 29 25 25 22 20 19 17 16 17 15 13 16 17 15 15 16 16 13 14 14 14 15 15 19
2 2 4 5 7 6 5 7 5 6 5 3 5 4 5 17 18 18 23 19 20 21 27 30 30 30 28 28 24 22 22 19 17 18 16 15 17 18 17 15 15 16 15 15 15 15 16 16 16
2 4 3 4 7 7 6 7 4 6 4 8 7 6 4 8 13 15 17 25 20 22 24 28 30 30 29 29 26 24 23 21 19 19 18 19 19 20 20 17 17 17 16 16 16 16 16 16 16
4 5 6 7 7 5 5 5 2 5 6 7 8 8 6 5 5 9 11 15 23 24 22 28 30 31 32 29 27 27 24 22 20 21 20 20 20 21 21 18 18 18 18 16 17 16 16 15 15
4 4 8 6 6 5 3 2 3 6 8 10 8 5 4 4 3 9 14 15 16 19 24 27 30 31 33 32 32 30 28 25 23 23 22 21 20 22 21 19 17 19 19 18 16 16 15 14 13
2 4 3 9 8 4 3 3 5 7 7 7 7 4 3 1 5 8 14 15 23 18 24 29 31 33 35 34 35 34 31 28 26 25 24 23 22 22 23 21 19 18 20 18 16 16 14 13 13
5 4 4 4 12 7 5 3 3 9 8 7 7 6 6 4 5 8 15 19 22 28 32 31 32 35 36 36 36 36 35 32 30 28 26 24 24 21 24 24 21 18 21 21 17 17 16 14 14
7 3 5 6 6 4 6 2 9 12 7 7 7 7 7 9 16 23 23 17 25 26 32 33 30 33 36 37 37 36 37 37 35 32 31 27 25 24 25 25 22 19 20 23 20 17 16 16 15
4 4 4 3 7 6 6 8 12 16 10 10 11 13 13 12 14 23 30 27 12 23 27 27 26 28 33 34 33 34 34 37 37 36 32 31 29 27 27 26 25 21 22 23 23 19 17 16 17
2 1 3 3 2 6 6 8 10 13 19 17 15 15 15 14 16 23 28 31 31 15 13 22 26 30 32 34 31 30 33 33 34 38 36 32 33 31 29 28 27 26 27 27 24 21 21 20 17
3 2 5 5 4 3 5 5 7 10 10 12 13 14 15 16 18 25 27 28 29 28 27 17 12 21 33 37 32 30 27 28 32 37 40 38 36 36 32 30 30 30 29 31 29 26 22 21 19
2 3 3 3 6 3 3 3 4 3 7 9 12 9 11 14 17 18 25 24 27 29 31 27 18 9 22 31 27 24 19 18 24 25 32 39 38 37 37 32 30 32 31 32 31 30 29 25 24
2 1 3 5 4 2 3 2 2 5 5 13 14 14 13 15 14 17 24 26 26 27 29 26 22 15 9 24 26 27 26 16 23 34 32 34 41 40 39 37 34 32 35 36 33 32 32 30 27
4 6 3 2 2 2 6 4 1 6 9 17 15 14 13 13 14 15 22 25 26 24 26 27 24 20 11 9 27 30 26 22 19 26 29 35 40 43 39 39 39 36 37 38 38 36 35 36 29
6 2 4 3 2 3 4 3 3 5 6 10 11 12 14 15 14 18 22 24 24 25 25 29 26 23 17 13 10 26 27 25 21 21 27 31 32 34 36 38 39 39 39 40 40 40 40 41 39
7 5 3 4 5 4 2 2 2 2 2 5 12 14 13 13 16 17 22 24 26 27 26 26 25 26 21 17 15 11 28 29 28 30 30 29 30 33 36 38 37 38 40 41 41 40 43 42 41
4 3 3 2 3 4 4 2 3 2 3 6 6 8 11 16 16 16 23 24 24 26 25 24 25 24 23 21 17 15 13 26 28 28 31 31 30 33 35 38 37 40 40 41 40 39 41 41 43
6 4 2 3 3 1 3 2 3 3 5 11 13 14 17 18 15 16 22 23 24 23 23 22 22 23 22 24 23 20 18 19 24 27 28 29 27 28 28 32 36 39 40 43 40 36 37 39 43
2 4 4 3 3 4 4 4 3 8 12 11 13 14 14 15 14 14 20 23 24 22 21 20 20 21 22 21 22 24 22 20 25 25 24 25 26 27 28 31 36 36 38 36 33 37 37 37 38
4 4 2 1 1 1 3 4 2 5 6 8 9 10 11 13 13 12 18 22 22 23 21 21 21 22 23 21 21 21 24 20 22 24 22 22 23 24 27 29 31 33 34 34 34 33 33 31 34
2 2 1 3 5 1 2 4 2 4 4 5 8 10 9 8 8 13 18 21 22 22 22 22 23 24 24 22 19 13 6 9 15 16 16 17 17 17 21 25 27 30 32 31 30 31 30 35 34
Wind_Direction
327 336 338 22 42 61 240 256 277 301 342 286 107 123 172 93 170 207 152 154 159 156 158 158 153 151 155 139 142 147 146 139 138 136 135 134 131 131 127 123 124 123 115 113 114 112 108 109 105
334 356 46 73 115 180 249 249 229 220 194 182 71 42 41 59 77 106 133 156 154 154 157 158 155 153 147 150 149 146 146 143 141 141 140 139 144 134 135 129 119 130 122 121 121 118 117 118 111
355 12 97 140 168 214 205 215 214 191 183 182 109 63 91 357 28 151 166 152 151 152 158 159 156 149 155 147 151 147 148 143 144 146 144 143 138 140 133 127 124 129 132 128 129 129 125 120 115
359 24 28 127 233 291 209 228 242 342 40 60 125 71 46 355 166 177 150 151 152 154 161 160 156 155 149 151 152 149 154 148 148 151 147 149 144 143 135 129 124 128 145 131 134 136 129 123 119
60 53 93 230 251 245 262 299 332 318 324 20 185 169 86 23 160 152 151 154 154 157 161 159 163 159 154 154 154 151 149 154 149 152 154 143 149 148 135 132 129 134 143 131 132 143 134 128 125
56 100 87 225 230 242 265 264 281 267 280 161 76 124 130 126 136 150 154 157 160 162 160 160 163 161 158 158 158 159 160 160 147 155 151 147 141 143 136 134 134 134 132 135 139 149 140 137 131
118 97 189 206 256 230 214 320 245 252 241 257 148 127 129 152 150 152 156 159 163 165 163 164 164 164 161 163 163 161 166 158 159 161 157 153 147 147 143 140 136 128 132 137 135 152 150 144 137
105 93 132 235 222 239 328 319 38 195 277 57 95 189 194 177 153 154 156 160 169 169 169 168 168 168 168 169 168 172 166 169 166 167 168 162 154 151 144 140 136 133 137 135 143 150 155 150 146
96 65 188 256 229 7 355 5 326 271 205 26 14 21 277 149 154 146 150 154 164 170 174 172 171 173 175 174 169 169 174 174 163 164 167 164 151 151 146 144 141 139 145 141 144 149 156 154 152
71 108 217 7 6 356 316 19 319 7 28 8 5 29 120 144 153 147 153 155 168 167 171 178 178 177 179 177 173 179 183 178 174 170 171 172 160 160 153 153 148 149 153 150 154 156 161 161 159
26 160 338 358 347 332 337 8 329 349 28 25 288 156 146 156 160 164 151 166 180 170 176 184 183 184 182 182 181 185 189 187 186 183 177 174 169 167 163 161 160 159 161 161 161 161 164 169 173
53 33 60 312 332 345 345 317 14 52 322 304 284 157 130 155 166 170 158 162 176 190 179 189 192 188 188 187 187 190 194 191 191 188 184 178 175 175 168 168 170 169 166 165 167 168 170 176 181
47 334 328 316 302 297 311 1 355 2 359 23 57 66 95 90 130 152 174 174 170 190 199 194 199 194 193 194 192 192 199 196 191 189 188 187 182 182 187 186 180 178 176 174 173 177 180 186 195
313 307 309 328 309 333 304 343 24 24 344 22 52 58 84 106 152 183 179 176 178 192 203 208 206 202 200 200 198 197 201 199 194 194 195 196 195 192 193 193 188 187 186 184 184 183 187 192 201
315 12 35 10 333 26 297 39 69 330 14 33 20 25 336 22 185 215 223 202 195 228 224 213 212 211 208 205 205 203 202 202 200 199 201 204 207 201 199 200 200 201 196 193 191 193 196 200 210
38 37 34 9 16 331 42 291 32 355 3 15 32 10 355 333 316 279 240 237 220 213 214 219 216 211 213 211 211 209 207 202 206 209 203 208 212 209 204 206 211 213 205 203 201 202 205 213 214
15 51 8 336 41 332 38 329 358 341 335 346 6 11 7 1 13 2 2 279 242 227 222 218 211 211 213 214 216 214 212 209 209 212 207 211 210 209 210 212 215 217 213 209 209 212 218 218 226
339 359 336 338 328 13 18 22 21 16 42 26 28 30 29 28 8 2 9 17 294 256 242 238 237 231 225 215 212 214 212 212 213 214 213 213 212 211 213 215 218 220 216 212 214 224 230 236 237
148 112 322 281 312 28 23 70 37 32 46 38 31 23 14 8 356 6 10 16 31 22 290 275 247 231 229 213 209 210 208 206 209 217 218 216 217 215 216 218 221 221 218 215 221 226 232 236 231
25 54 342 291 299 32 18 91 94 58 55 48 30 17 8 355 0 1 4 10 11 12 18 11 306 250 237 217 214 217 213 216 210 214 218 219 220 219 217 221 223 223 224 221 224 225 225 235 229
10 81 338 276 328 64 15 76 47 105 74 42 37 20 7 0 352 352 354 0 1 2 3 7 3 313 242 240 218 218 218 210 200 210 217 219 224 223 219 221 225 226 226 225 229 228 226 227 230
339 345 283 292 11 148 27 211 25 344 2 18 15 11 360 351 350 350 349 351 355 351 351 356 1 357 318 233 217 215 219 202 212 216 228 228 224 227 224 221 223 230 228 228 230 234 232 228 219
280 334 318 318 88 44 0 72 265 11 341 356 358 359 355 351 347 345 345 343 342 346 347 344 346 352 349 307 234 227 225 225 224 225 231 229 231 227 228 226 225 229 229 232 234 232 230 234 226
302 347 31 38 57 46 302 101 347 9 334 333 342 352 354 351 349 347 344 341 341 342 343 343 339 335 341 333 288 234 231 224 216 222 226 228 224 224 230 234 233 232 232 234 238 238 236 236 234
14 38 353 1 13 200 315 47 277 10 339 330 332 346 356 357 356 351 349 345 340 340 339 340 338 331 330 329 315 290 244 235 229 227 228 228 226 230 233 232 235 235 234 237 238 237 238 238 237
330 12 132 201 342 287 308 287 180 109 50 317 341 347 357 0 357 349 346 345 339 337 336 335 335 327 328 322 311 292 281 250 241 238 236 233 229 234 241 238 240 243 246 242 238 236 237 238 239
317 28 290 109 18 307 273 262 240 271 347 358 355 359 1 358 351 345 344 345 342 340 337 335 333 325 323 321 311 297 268 257 249 249 247 245 247 248 247 247 250 248 248 244 240 237 236 234 242
122 296 16 6 19 321 302 277 251 336 340 344 355 360 351 345 344 344 343 344 342 341 342 341 340 330 329 326 314 301 284 256 248 244 242 248 253 253 252 252 254 255 251 240 238 243 242 238 235
353 354 348 347 144 257 308 272 235 298 332 324 339 341 335 334 340 341 347 349 346 345 349 350 350 347 344 338 331 318 296 276 242 239 241 242 255 259 260 257 247 246 252 255 255 245 241 243 241
289 282 296 114 292 264 177 273 148 282 304 303 318 327 320 305 322 338 347 353 352 352 355 358 359 357 355 356 350 344 349 241 227 223 210 224 233 248 260 257 257 259 259 260 260 251 243 242 243